RH
59 50 45 43 43 41 38 36 29 31 28 28 35 40 38 31 31 35 38 47 58 66
73 67 58 55 53 54 51 44 35 36 35 37 35 34 32 39 34 40 40 39 49 62
86 81 70 62 63 53 48 48 47 47 46 45 41 37 33 39 40 37 36 40 43 49
89 89 76 73 56 44 41 54 53 53 63 64 47 44 42 36 38 44 39 34 36 39
80 86 86 62 44 50 53 62 58 61 83 74 61 56 46 42 44 46 44 44 38 37
69 77 70 46 48 59 62 61 61 89 97 92 80 76 76 63 57 52 54 54 44 43
62 59 56 51 47 54 66 64 61 65 76 79 83 87 83 66 59 56 48 48 45 41
68 57 51 54 48 47 51 62 64 58 60 69 75 76 77 66 60 53 48 43 42 41
81 70 62 54 62 67 59 58 56 62 56 60 63 65 65 70 65 67 67 50 48 50
90 87 79 75 71 76 78 80 75 75 81 75 72 71 70 71 69 65 57 55 57 58
88 92 93 93 92 92 85 84 86 83 71 69 68 65 61 62 68 65 62 56 57 60
58 82 90 96 98 99 98 98 97 95 92 89 80 69 65 65 62 57 58 59 63 65
17 23 54 70 78 83 93 98 99 98 98 98 98 97 98 94 84 82 88 81 81 77
18 18 17 18 23 37 43 53 81 91 97 99 99 99 99 99 98 97 98 98 99 98